Location: Filler
(36.7551°N, 30.4456°E)
Time: 08:05:48
(UTC+00:00)

Cosmos 724 - Pass Details

Date: 19 June 2024
Orbit: 864 x 930 km, 65.6° (Epoch: 22 July)

Event Time Altitude Azimuth Distance (km) Brightness Sun altitude
Rises 01:01:26 0° 326° (NNW) 3,452 7.6 -16.1°
Reaches altitude 10° 01:03:57 10° 323° (NW) 2,516 6.8 -15.8°
Maximum altitude 01:09:38 58° 245° (WSW) 1,011 4.3 -15.0°
Drops below altitude 10° 01:15:23 10° 168° (SSE) 2,536 6.4 -14.2°
Sets 01:17:55 0° 164° (SSE) 3,481 7.1 -13.8°
